{"data":{"norad_id":55490,"epoch":"2026-05-25T00:44:25.562688Z","epoch_age_seconds":62488,"freshness":"FRESH","line1":"1 55490U 23015AT  26145.03085142  .00000454  00000+0  26015-4 0  9995","line2":"2 55490  43.0012 268.3303 0001597 257.5283 102.5390 15.27578030182272","mean_motion":15.2757803,"eccentricity":0.0001597,"inclination_deg":43.0012,"raan_deg":268.3303,"arg_perigee_deg":257.5283,"mean_anomaly_deg":102.539,"bstar":2.6015e-5,"rev_number":18227,"period_min":94.266870282234,"perigee_km":481.95926257311,"apogee_km":484.15072729629,"semimajor_km":6861.1919949347,"source":"CELESTRAK","updated_at":"2026-05-25T13:38:17.810892Z"}}